Time,TemperatureF,DewpointF,PressureIn,WindDirection,WindDirectionDegrees,WindSpeedMPH,WindSpeedGustMPH,Humidity,HourlyPrecipIn,Conditions,Clouds,dailyrainin,SoftwareType,DateUTC
2013-02-23 00:01:00,17.0,5.0,29.79,North,-999,-999.0,-999.0,58,-99.99,,,-99.99,,2013-02-23 07:01:00,
2013-02-23 00:11:00,16.0,4.0,29.78,North,-999,-999.0,-999.0,59,-99.99,,,-99.99,,2013-02-23 07:11:00,
2013-02-23 00:21:00,16.0,4.0,29.78,North,-999,-999.0,-999.0,59,-99.99,,,-99.99,,2013-02-23 07:21:00,
2013-02-23 00:31:00,16.0,4.0,29.78,North,-999,-999.0,-999.0,59,-99.99,,,-99.99,,2013-02-23 07:31:00,
2013-02-23 00:41:00,18.0,4.0,29.78,North,-999,-999.0,-999.0,54,-99.99,,,-99.99,,2013-02-23 07:41:00,
2013-02-23 00:51:00,18.0,4.0,29.78,North,-999,-999.0,-999.0,54,-99.99,,,-99.99,,2013-02-23 07:51:00,
2013-02-23 01:01:00,18.0,4.0,29.78,North,-999,-999.0,-999.0,54,-99.99,,,-99.99,,2013-02-23 08:01:00,
2013-02-23 01:11:00,16.0,4.0,29.78,North,-999,-999.0,-999.0,59,-99.99,,,-99.99,,2013-02-23 08:11:00,
2013-02-23 01:21:00,16.0,4.0,29.78,North,-999,-999.0,-999.0,59,-99.99,,,-99.99,,2013-02-23 08:21:00,
2013-02-23 01:32:00,16.0,4.0,29.78,North,-999,-999.0,-999.0,59,-99.99,,,-99.99,,2013-02-23 08:32:00,
2013-02-23 01:42:00,15.0,4.0,29.77,North,-999,-999.0,-999.0,60,-99.99,,,-99.99,,2013-02-23 08:42:00,
2013-02-23 01:52:00,15.0,4.0,29.77,North,-999,-999.0,-999.0,60,-99.99,,,-99.99,,2013-02-23 08:52:00,
2013-02-23 02:01:00,15.0,4.0,29.77,North,-999,-999.0,-999.0,60,-99.99,,,-99.99,,2013-02-23 09:01:00,
2013-02-23 02:11:00,15.0,4.0,29.76,North,-999,-999.0,-999.0,63,-99.99,,,-99.99,,2013-02-23 09:11:00,
2013-02-23 02:21:00,15.0,4.0,29.76,North,-999,-999.0,-999.0,63,-99.99,,,-99.99,,2013-02-23 09:21:00,
2013-02-23 02:32:00,15.0,4.0,29.76,North,-999,-999.0,-999.0,63,-99.99,,,-99.99,,2013-02-23 09:32:00,
2013-02-23 02:42:00,16.0,5.0,29.74,North,-999,-999.0,-999.0,61,-99.99,,,-99.99,,2013-02-23 09:42:00,
2013-02-23 02:51:00,16.0,5.0,29.74,North,-999,-999.0,-999.0,61,-99.99,,,-99.99,,2013-02-23 09:51:00,
2013-02-23 03:01:00,16.0,5.0,29.74,North,-999,-999.0,-999.0,61,-99.99,,,-99.99,,2013-02-23 10:01:00,
2013-02-23 03:11:00,17.0,5.0,29.74,North,-999,-999.0,-999.0,57,-99.99,,,-99.99,,2013-02-23 10:11:00,
2013-02-23 03:21:00,17.0,5.0,29.74,North,-999,-999.0,-999.0,57,-99.99,,,-99.99,,2013-02-23 10:21:00,
2013-02-23 03:32:00,17.0,5.0,29.74,North,-999,-999.0,-999.0,57,-99.99,,,-99.99,,2013-02-23 10:32:00,
2013-02-23 03:42:00,17.0,5.0,29.74,North,-999,-999.0,-999.0,57,-99.99,,,-99.99,,2013-02-23 10:42:00,
2013-02-23 03:51:00,18.0,5.0,29.73,North,-999,-999.0,-999.0,54,-99.99,,,-99.99,,2013-02-23 10:51:00,
2013-02-23 04:02:00,18.0,5.0,29.73,North,-999,-999.0,-999.0,54,-99.99,,,-99.99,,2013-02-23 11:02:00,
2013-02-23 04:11:00,18.0,5.0,29.71,North,-999,-999.0,-999.0,55,-99.99,,,-99.99,,2013-02-23 11:11:00,
2013-02-23 04:21:00,18.0,5.0,29.71,North,-999,-999.0,-999.0,55,-99.99,,,-99.99,,2013-02-23 11:21:00,
2013-02-23 04:32:00,18.0,5.0,29.71,North,-999,-999.0,-999.0,55,-99.99,,,-99.99,,2013-02-23 11:32:00,
2013-02-23 04:42:00,18.0,5.0,29.72,North,-999,-999.0,-999.0,56,-99.99,,,-99.99,,2013-02-23 11:42:00,
2013-02-23 04:52:00,18.0,5.0,29.72,North,-999,-999.0,-999.0,56,-99.99,,,-99.99,,2013-02-23 11:52:00,
2013-02-23 05:02:00,18.0,5.0,29.72,North,-999,-999.0,-999.0,56,-99.99,,,-99.99,,2013-02-23 12:02:00,
2013-02-23 05:11:00,17.0,5.0,29.71,North,-999,-999.0,-999.0,58,-99.99,,,-99.99,,2013-02-23 12:11:00,
2013-02-23 05:21:00,17.0,5.0,29.71,North,-999,-999.0,-999.0,58,-99.99,,,-99.99,,2013-02-23 12:21:00,
2013-02-23 05:32:00,17.0,5.0,29.71,North,-999,-999.0,-999.0,58,-99.99,,,-99.99,,2013-02-23 12:32:00,
2013-02-23 05:42:00,18.0,5.0,29.71,North,-999,-999.0,-999.0,56,-99.99,,,-99.99,,2013-02-23 12:42:00,
2013-02-23 05:52:00,18.0,5.0,29.71,North,-999,-999.0,-999.0,56,-99.99,,,-99.99,,2013-02-23 12:52:00,
2013-02-23 06:01:00,18.0,5.0,29.71,North,-999,-999.0,-999.0,56,-99.99,,,-99.99,,2013-02-23 13:01:00,
2013-02-23 06:11:00,16.0,6.0,29.71,North,-999,-999.0,-999.0,62,-99.99,,,-99.99,,2013-02-23 13:11:00,
2013-02-23 06:22:00,16.0,6.0,29.71,North,-999,-999.0,-999.0,62,-99.99,,,-99.99,,2013-02-23 13:22:00,
2013-02-23 06:32:00,16.0,6.0,29.71,North,-999,-999.0,-999.0,62,-99.99,,,-99.99,,2013-02-23 13:32:00,
2013-02-23 06:42:00,17.0,6.0,29.72,North,-999,-999.0,-999.0,62,-99.99,,,-99.99,,2013-02-23 13:42:00,
2013-02-23 06:52:00,17.0,6.0,29.72,North,-999,-999.0,-999.0,62,-99.99,,,-99.99,,2013-02-23 13:52:00,
2013-02-23 07:02:00,17.0,6.0,29.72,North,-999,-999.0,-999.0,62,-99.99,,,-99.99,,2013-02-23 14:02:00,
2013-02-23 07:11:00,17.0,6.0,29.72,North,-999,-999.0,-999.0,62,-99.99,,,-99.99,,2013-02-23 14:11:00,
2013-02-23 07:21:00,17.0,6.0,29.72,North,-999,-999.0,-999.0,62,-99.99,,,-99.99,,2013-02-23 14:21:00,
2013-02-23 07:33:00,17.0,6.0,29.72,North,-999,-999.0,-999.0,62,-99.99,,,-99.99,,2013-02-23 14:33:00,
2013-02-23 07:42:00,18.0,7.0,29.73,North,-999,-999.0,-999.0,60,-99.99,,,-99.99,,2013-02-23 14:42:00,
2013-02-23 07:52:00,18.0,7.0,29.73,North,-999,-999.0,-999.0,60,-99.99,,,-99.99,,2013-02-23 14:52:00,
2013-02-23 08:01:00,18.0,7.0,29.73,North,-999,-999.0,-999.0,60,-99.99,,,-99.99,,2013-02-23 15:01:00,
2013-02-23 08:11:00,19.0,7.0,29.73,North,-999,-999.0,-999.0,58,-99.99,,,-99.99,,2013-02-23 15:11:00,
2013-02-23 08:21:00,19.0,7.0,29.73,North,-999,-999.0,-999.0,58,-99.99,,,-99.99,,2013-02-23 15:21:00,
2013-02-23 08:31:00,19.0,7.0,29.73,North,-999,-999.0,-999.0,58,-99.99,,,-99.99,,2013-02-23 15:31:00,
2013-02-23 08:42:00,21.0,9.0,29.74,North,-999,-999.0,-999.0,59,-99.99,,,-99.99,,2013-02-23 15:42:00,
2013-02-23 08:51:00,21.0,9.0,29.74,North,-999,-999.0,-999.0,59,-99.99,,,-99.99,,2013-02-23 15:51:00,
2013-02-23 09:01:00,21.0,9.0,29.74,North,-999,-999.0,-999.0,59,-99.99,,,-99.99,,2013-02-23 16:01:00,
2013-02-23 09:11:00,22.0,10.0,29.74,North,-999,-999.0,-999.0,57,-99.99,,,-99.99,,2013-02-23 16:11:00,
2013-02-23 09:21:00,22.0,10.0,29.74,North,-999,-999.0,-999.0,57,-99.99,,,-99.99,,2013-02-23 16:21:00,
2013-02-23 09:32:00,22.0,10.0,29.74,North,-999,-999.0,-999.0,57,-99.99,,,-99.99,,2013-02-23 16:32:00,
2013-02-23 09:42:00,22.0,9.0,29.71,North,-999,-999.0,-999.0,56,-99.99,,,-99.99,,2013-02-23 16:42:00,
2013-02-23 09:52:00,22.0,9.0,29.71,North,-999,-999.0,-999.0,56,-99.99,,,-99.99,,2013-02-23 16:52:00,
2013-02-23 10:01:00,22.0,9.0,29.71,North,-999,-999.0,-999.0,56,-99.99,,,-99.99,,2013-02-23 17:01:00,
2013-02-23 10:11:00,24.0,9.0,29.71,North,-999,-999.0,-999.0,52,-99.99,,,-99.99,,2013-02-23 17:11:00,
2013-02-23 10:21:00,24.0,9.0,29.71,North,-999,-999.0,-999.0,52,-99.99,,,-99.99,,2013-02-23 17:21:00,
2013-02-23 10:32:00,24.0,9.0,29.71,North,-999,-999.0,-999.0,52,-99.99,,,-99.99,,2013-02-23 17:32:00,
2013-02-23 10:42:00,26.0,8.0,29.70,North,-999,-999.0,-999.0,46,-99.99,,,-99.99,,2013-02-23 17:42:00,
2013-02-23 10:52:00,26.0,8.0,29.70,North,-999,-999.0,-999.0,46,-99.99,,,-99.99,,2013-02-23 17:52:00,
2013-02-23 11:01:00,26.0,8.0,29.70,North,-999,-999.0,-999.0,46,-99.99,,,-99.99,,2013-02-23 18:01:00,
2013-02-23 11:12:00,27.0,7.0,29.68,North,-999,-999.0,-999.0,43,-99.99,,,-99.99,,2013-02-23 18:12:00,
2013-02-23 11:21:00,27.0,7.0,29.68,North,-999,-999.0,-999.0,43,-99.99,,,-99.99,,2013-02-23 18:21:00,
2013-02-23 11:31:00,27.0,7.0,29.68,North,-999,-999.0,-999.0,43,-99.99,,,-99.99,,2013-02-23 18:31:00,
2013-02-23 11:42:00,29.0,10.0,29.66,North,-999,-999.0,-999.0,46,-99.99,,,-99.99,,2013-02-23 18:42:00,
2013-02-23 11:51:00,29.0,10.0,29.66,North,-999,-999.0,-999.0,46,-99.99,,,-99.99,,2013-02-23 18:51:00,
2013-02-23 12:01:00,29.0,10.0,29.66,North,-999,-999.0,-999.0,46,-99.99,,,-99.99,,2013-02-23 19:01:00,
2013-02-23 12:11:00,28.0,12.0,29.65,North,-999,-999.0,-999.0,50,-99.99,,,-99.99,,2013-02-23 19:11:00,
2013-02-23 12:21:00,28.0,12.0,29.65,North,-999,-999.0,-999.0,50,-99.99,,,-99.99,,2013-02-23 19:21:00,
2013-02-23 12:32:00,28.0,12.0,29.65,North,-999,-999.0,-999.0,50,-99.99,,,-99.99,,2013-02-23 19:32:00,
2013-02-23 12:41:00,28.0,11.0,29.63,North,-999,-999.0,-999.0,46,-99.99,,,-99.99,,2013-02-23 19:41:00,
2013-02-23 12:52:00,28.0,11.0,29.63,North,-999,-999.0,-999.0,46,-99.99,,,-99.99,,2013-02-23 19:52:00,
2013-02-23 13:01:00,28.0,11.0,29.63,North,-999,-999.0,-999.0,46,-99.99,,,-99.99,,2013-02-23 20:01:00,
2013-02-23 13:11:00,28.0,12.0,29.62,North,-999,-999.0,-999.0,49,-99.99,,,-99.99,,2013-02-23 20:11:00,
2013-02-23 13:21:00,28.0,12.0,29.62,North,-999,-999.0,-999.0,49,-99.99,,,-99.99,,2013-02-23 20:21:00,
2013-02-23 13:32:00,28.0,12.0,29.62,North,-999,-999.0,-999.0,49,-99.99,,,-99.99,,2013-02-23 20:32:00,
2013-02-23 13:42:00,29.0,11.0,29.61,North,-999,-999.0,-999.0,47,-99.99,,,-99.99,,2013-02-23 20:42:00,
2013-02-23 13:52:00,29.0,11.0,29.61,North,-999,-999.0,-999.0,47,-99.99,,,-99.99,,2013-02-23 20:52:00,
2013-02-23 14:01:00,29.0,11.0,29.61,North,-999,-999.0,-999.0,47,-99.99,,,-99.99,,2013-02-23 21:01:00,
2013-02-23 14:11:00,31.0,13.0,29.61,North,-999,-999.0,-999.0,48,-99.99,,,-99.99,,2013-02-23 21:11:00,
2013-02-23 14:22:00,31.0,13.0,29.61,North,-999,-999.0,-999.0,48,-99.99,,,-99.99,,2013-02-23 21:22:00,
2013-02-23 14:32:00,31.0,13.0,29.61,North,-999,-999.0,-999.0,48,-99.99,,,-99.99,,2013-02-23 21:32:00,
2013-02-23 14:42:00,32.0,13.0,29.60,North,-999,-999.0,-999.0,45,-99.99,,,-99.99,,2013-02-23 21:42:00,
2013-02-23 14:52:00,32.0,13.0,29.60,North,-999,-999.0,-999.0,45,-99.99,,,-99.99,,2013-02-23 21:52:00,
2013-02-23 15:01:00,32.0,13.0,29.60,North,-999,-999.0,-999.0,45,-99.99,,,-99.99,,2013-02-23 22:01:00,
2013-02-23 15:11:00,31.0,15.0,29.58,North,-999,-999.0,-999.0,50,-99.99,,,-99.99,,2013-02-23 22:11:00,
2013-02-23 15:21:00,31.0,15.0,29.58,North,-999,-999.0,-999.0,50,-99.99,,,-99.99,,2013-02-23 22:21:00,
2013-02-23 15:32:00,31.0,15.0,29.58,North,-999,-999.0,-999.0,50,-99.99,,,-99.99,,2013-02-23 22:32:00,
2013-02-23 15:42:00,31.0,15.0,29.58,North,-999,-999.0,-999.0,50,-99.99,,,-99.99,,2013-02-23 22:42:00,
2013-02-23 15:51:00,31.0,15.0,29.59,North,-999,-999.0,-999.0,49,-99.99,,,-99.99,,2013-02-23 22:51:00,
2013-02-23 16:01:00,31.0,15.0,29.59,North,-999,-999.0,-999.0,49,-99.99,,,-99.99,,2013-02-23 23:01:00,
2013-02-23 16:11:00,32.0,15.0,29.59,North,-999,-999.0,-999.0,48,-99.99,,,-99.99,,2013-02-23 23:11:00,
2013-02-23 16:21:00,32.0,15.0,29.59,North,-999,-999.0,-999.0,48,-99.99,,,-99.99,,2013-02-23 23:21:00,
2013-02-23 16:30:00,31.0,15.0,29.59,North,-999,-999.0,-999.0,52,-99.99,,,-99.99,,2013-02-23 23:30:00,
2013-02-23 16:31:00,32.0,15.0,29.59,North,-999,-999.0,-999.0,48,-99.99,,,-99.99,,2013-02-23 23:31:00,
2013-02-23 16:42:00,31.0,15.0,29.59,North,-999,-999.0,-999.0,52,-99.99,,,-99.99,,2013-02-23 23:42:00,
2013-02-23 16:52:00,31.0,15.0,29.59,North,-999,-999.0,-999.0,52,-99.99,,,-99.99,,2013-02-23 23:52:00,
2013-02-23 17:01:00,31.0,15.0,29.59,North,-999,-999.0,-999.0,52,-99.99,,,-99.99,,2013-02-24 00:01:00,
2013-02-23 17:11:00,31.0,15.0,29.59,North,-999,-999.0,-999.0,52,-99.99,,,-99.99,,2013-02-24 00:11:00,
2013-02-23 17:22:00,31.0,15.0,29.59,North,-999,-999.0,-999.0,52,-99.99,,,-99.99,,2013-02-24 00:22:00,
2013-02-23 17:42:00,30.0,15.0,29.60,North,-999,-999.0,-999.0,53,-99.99,,,-99.99,,2013-02-24 00:42:00,
2013-02-23 17:52:00,30.0,15.0,29.60,North,-999,-999.0,-999.0,53,-99.99,,,-99.99,,2013-02-24 00:52:00,
2013-02-23 18:01:00,30.0,15.0,29.60,North,-999,-999.0,-999.0,53,-99.99,,,-99.99,,2013-02-24 01:01:00,
2013-02-23 18:11:00,29.0,15.0,29.62,North,-999,-999.0,-999.0,54,-99.99,,,-99.99,,2013-02-24 01:11:00,
2013-02-23 18:22:00,29.0,15.0,29.62,North,-999,-999.0,-999.0,54,-99.99,,,-99.99,,2013-02-24 01:22:00,
2013-02-23 18:31:00,29.0,15.0,29.62,North,-999,-999.0,-999.0,54,-99.99,,,-99.99,,2013-02-24 01:31:00,
2013-02-23 18:42:00,26.0,18.0,29.64,North,-999,-999.0,-999.0,69,-99.99,,,-99.99,,2013-02-24 01:42:00,
2013-02-23 18:51:00,26.0,18.0,29.64,North,-999,-999.0,-999.0,69,-99.99,,,-99.99,,2013-02-24 01:51:00,
2013-02-23 19:01:00,26.0,18.0,29.64,North,-999,-999.0,-999.0,69,-99.99,,,-99.99,,2013-02-24 02:01:00,
2013-02-23 19:11:00,24.0,20.0,29.65,North,-999,-999.0,-999.0,87,-99.99,,,-99.99,,2013-02-24 02:11:00,
2013-02-23 19:21:00,24.0,20.0,29.65,North,-999,-999.0,-999.0,87,-99.99,,,-99.99,,2013-02-24 02:21:00,
2013-02-23 19:32:00,24.0,20.0,29.65,North,-999,-999.0,-999.0,87,-99.99,,,-99.99,,2013-02-24 02:32:00,
2013-02-23 19:42:00,23.0,20.0,29.67,North,-999,-999.0,-999.0,89,-99.99,,,-99.99,,2013-02-24 02:42:00,
2013-02-23 19:52:00,23.0,20.0,29.67,North,-999,-999.0,-999.0,89,-99.99,,,-99.99,,2013-02-24 02:52:00,
2013-02-23 20:02:00,23.0,20.0,29.67,North,-999,-999.0,-999.0,89,-99.99,,,-99.99,,2013-02-24 03:02:00,
2013-02-23 20:11:00,22.0,20.0,29.67,North,-999,-999.0,-999.0,91,-99.99,,,-99.99,,2013-02-24 03:11:00,
2013-02-23 20:21:00,22.0,20.0,29.67,North,-999,-999.0,-999.0,91,-99.99,,,-99.99,,2013-02-24 03:21:00,
2013-02-23 20:32:00,22.0,20.0,29.67,North,-999,-999.0,-999.0,91,-99.99,,,-99.99,,2013-02-24 03:32:00,
2013-02-23 20:42:00,22.0,20.0,29.67,North,-999,-999.0,-999.0,91,-99.99,,,-99.99,,2013-02-24 03:42:00,
2013-02-23 20:52:00,22.0,20.0,29.68,North,-999,-999.0,-999.0,91,-99.99,,,-99.99,,2013-02-24 03:52:00,
2013-02-23 21:01:00,22.0,20.0,29.68,North,-999,-999.0,-999.0,91,-99.99,,,-99.99,,2013-02-24 04:01:00,
2013-02-23 21:11:00,22.0,20.0,29.68,North,-999,-999.0,-999.0,91,-99.99,,,-99.99,,2013-02-24 04:11:00,
2013-02-23 21:21:00,22.0,20.0,29.69,North,-999,-999.0,-999.0,90,-99.99,,,-99.99,,2013-02-24 04:21:00,
2013-02-23 21:32:00,22.0,20.0,29.69,North,-999,-999.0,-999.0,90,-99.99,,,-99.99,,2013-02-24 04:32:00,
2013-02-23 21:42:00,22.0,20.0,29.70,North,-999,-999.0,-999.0,91,-99.99,,,-99.99,,2013-02-24 04:42:00,
2013-02-23 21:52:00,22.0,20.0,29.70,North,-999,-999.0,-999.0,91,-99.99,,,-99.99,,2013-02-24 04:52:00,
2013-02-23 22:01:00,22.0,20.0,29.70,North,-999,-999.0,-999.0,91,-99.99,,,-99.99,,2013-02-24 05:01:00,
2013-02-23 22:11:00,22.0,20.0,29.70,North,-999,-999.0,-999.0,91,-99.99,,,-99.99,,2013-02-24 05:11:00,
2013-02-23 22:22:00,22.0,20.0,29.70,North,-999,-999.0,-999.0,91,-99.99,,,-99.99,,2013-02-24 05:22:00,
2013-02-23 22:32:00,22.0,20.0,29.70,North,-999,-999.0,-999.0,91,-99.99,,,-99.99,,2013-02-24 05:32:00,
2013-02-23 22:42:00,21.0,19.0,29.69,North,-999,-999.0,-999.0,91,-99.99,,,-99.99,,2013-02-24 05:42:00,
2013-02-23 22:52:00,21.0,19.0,29.69,North,-999,-999.0,-999.0,91,-99.99,,,-99.99,,2013-02-24 05:52:00,
2013-02-23 23:01:00,21.0,19.0,29.69,North,-999,-999.0,-999.0,91,-99.99,,,-99.99,,2013-02-24 06:01:00,
2013-02-23 23:11:00,21.0,19.0,29.69,North,-999,-999.0,-999.0,92,-99.99,,,-99.99,,2013-02-24 06:11:00,
2013-02-23 23:21:00,21.0,19.0,29.69,North,-999,-999.0,-999.0,92,-99.99,,,-99.99,,2013-02-24 06:21:00,
2013-02-23 23:32:00,21.0,19.0,29.69,North,-999,-999.0,-999.0,92,-99.99,,,-99.99,,2013-02-24 06:32:00,
2013-02-23 23:42:00,21.0,19.0,29.69,North,-999,-999.0,-999.0,92,-99.99,,,-99.99,,2013-02-24 06:42:00,
2013-02-23 23:52:00,21.0,19.0,29.69,North,-999,-999.0,-999.0,92,-99.99,,,-99.99,,2013-02-24 06:52:00,